User: anonymous   Login
Location: Unspecified
(0.0000°N, 0.0000°E)
Time: 02:12:03
(UTC+00:00)
Language:

LilacSat-2 - Orbit

View from above orbital plane
View from above orbital plane
View from above satellite
View from above satellite

Ground track
Ground track

The orbit data is extracted from the following two-line orbital elements,

1 40908U 15049K   20185.50737736  .00000036  00000-0  55769-5 0  9990
2 40908  97.4905 184.6582 0015217 331.7006 145.9449 15.14053096264425
Epoch (UTC): 03 July 2020 12:10:37
Eccentricity: 0.0015217
inclination: 97.4905°
perigee height: 513 km
apogee height: 534 km
right ascension of ascending node: 184.6582°
argument of perigee: 331.7006°
revolutions per day: 15.14053096
mean anomaly at epoch: 145.9449°
orbit number at epoch: 26442

The dashed part of the orbit path shows where the satellite is in the earth's shadow,  

DLR